SAS915 EKCH-KJFK

Flight info

Callsign SAS915
Flight time N/A
Altitude 38000
Route ODDON P60 AMRAM L983 PETIL DCT CUTEL DCT GOMOT DCT SAB DCT CLYDE DCT TUXOS DCT MIMKU DCT PIKIL/M080F390 NATA JANJO/N0471F400 N712B QUBIS DCT ENE PARCH4
Aircraft A333/H-SDE3GHIJ2J3J5M1RVWXY/LB2D1

Departure

Time N/A
Airport Copenhagen Kastrup Airport (EKCH)

Arrival

Time 2026-05-04 20:55
Airport John F. Kennedy International Airport (KJFK)
Time Latitude Longitude Altitude Speed Heading
2026-05-04 20:43 40.68591 -73.15440 8169 ft 238 kts 271°
2026-05-04 20:43 40.68608 -73.17621 7890 ft 237 kts 271°
2026-05-04 20:43 40.68621 -73.19791 7627 ft 236 kts 271°
2026-05-04 20:44 40.68633 -73.21950 7295 ft 236 kts 271°
2026-05-04 20:44 40.68644 -73.24152 6733 ft 244 kts 270°
2026-05-04 20:44 40.68653 -73.26377 6280 ft 247 kts 271°
2026-05-04 20:44 40.68663 -73.28647 5833 ft 248 kts 270°
2026-05-04 20:45 40.68672 -73.30925 5406 ft 248 kts 269°
2026-05-04 20:45 40.68682 -73.33221 5061 ft 247 kts 269°
2026-05-04 20:45 40.68687 -73.35434 4857 ft 241 kts 268°
2026-05-04 20:45 40.68716 -73.37593 4701 ft 232 kts 277°
2026-05-04 20:46 40.69390 -73.39489 4552 ft 231 kts 307°
2026-05-04 20:46 40.70617 -73.40851 4355 ft 231 kts 320°
2026-05-04 20:46 40.71952 -73.42015 4104 ft 230 kts 322°
2026-05-04 20:46 40.73293 -73.43147 4005 ft 228 kts 322°
2026-05-04 20:47 40.74630 -73.44272 3996 ft 228 kts 322°
2026-05-04 20:47 40.75975 -73.45400 4000 ft 229 kts 322°
2026-05-04 20:47 40.77318 -73.46531 3999 ft 229 kts 322°
2026-05-04 20:47 40.78659 -73.47659 3995 ft 228 kts 322°
2026-05-04 20:48 40.79997 -73.48789 4007 ft 229 kts 322°
2026-05-04 20:48 40.81341 -73.49922 3995 ft 229 kts 322°
2026-05-04 20:48 40.82676 -73.51061 3986 ft 225 kts 322°
2026-05-04 20:48 40.83871 -73.52262 3963 ft 207 kts 304°
2026-05-04 20:49 40.84380 -73.53915 3963 ft 191 kts 272°
2026-05-04 20:49 40.84280 -73.55640 3629 ft 189 kts 259°
2026-05-04 20:49 40.83899 -73.57293 3273 ft 189 kts 246°
2026-05-04 20:49 40.83325 -73.58854 3019 ft 190 kts 243°
2026-05-04 20:50 40.82716 -73.60417 2959 ft 192 kts 238°
2026-05-04 20:50 40.81871 -73.61698 2987 ft 178 kts 221°
2026-05-04 20:50 40.80872 -73.62638 2968 ft 176 kts 215°
2026-05-04 20:50 40.79848 -73.63447 2980 ft 173 kts 213°
2026-05-04 20:51 40.78813 -73.64255 2988 ft 173 kts 213°
2026-05-04 20:51 40.77786 -73.65059 2994 ft 168 kts 213°
2026-05-04 20:51 40.76815 -73.65829 2847 ft 159 kts 214°
2026-05-04 20:51 40.75887 -73.66566 2622 ft 154 kts 214°
2026-05-04 20:52 40.74970 -73.67284 2422 ft 153 kts 212°
2026-05-04 20:52 40.74060 -73.68000 2206 ft 151 kts 213°
2026-05-04 20:52 40.73161 -73.68708 2001 ft 150 kts 213°
2026-05-04 20:52 40.72264 -73.69411 1794 ft 150 kts 213°
2026-05-04 20:53 40.71369 -73.70117 1599 ft 150 kts 212°
2026-05-04 20:53 40.70499 -73.70800 1416 ft 139 kts 212°
2026-05-04 20:53 40.69701 -73.71424 1212 ft 128 kts 212°
2026-05-04 20:53 40.68947 -73.72016 1051 ft 125 kts 211°
2026-05-04 20:54 40.68200 -73.72605 885 ft 127 kts 210°
2026-05-04 20:54 40.67435 -73.73207 715 ft 128 kts 208°
2026-05-04 20:54 40.66673 -73.73803 544 ft 127 kts 206°
2026-05-04 20:54 40.65922 -73.74387 374 ft 123 kts 206°
2026-05-04 20:55 40.65206 -73.74969 210 ft 121 kts 208°
2026-05-04 20:55 40.64493 -73.75504 98 ft 118 kts 203°
2026-05-04 20:55 40.63844 -73.76029 27 ft 97 kts 208°
2026-05-04 20:55 40.63480 -73.76298 28 ft 30 kts 208°
2026-05-04 20:56 40.63327 -73.76423 28 ft 23 kts 237°
2026-05-04 20:56 40.63251 -73.76605 26 ft 22 kts 244°
2026-05-04 20:56 40.63259 -73.76772 29 ft 19 kts 303°
2026-05-04 20:56 40.63314 -73.76895 25 ft 14 kts 301°
2026-05-04 20:57 40.63368 -73.77011 28 ft 16 kts 303°
2026-05-04 20:57 40.63427 -73.77137 27 ft 15 kts 297°
2026-05-04 20:57 40.63430 -73.77250 27 ft 13 kts 242°
2026-05-04 20:57 40.63361 -73.77324 27 ft 13 kts 210°
2026-05-04 20:58 40.63277 -73.77386 28 ft 14 kts 208°
2026-05-04 20:58 40.63191 -73.77450 29 ft 14 kts 220°
2026-05-04 20:58 40.63184 -73.77541 31 ft 9 kts 300°
2026-05-04 20:58 40.63218 -73.77615 27 ft 10 kts 301°
2026-05-04 20:59 40.63256 -73.77700 28 ft 12 kts 301°
2026-05-04 20:59 40.63300 -73.77802 27 ft 14 kts 297°
2026-05-04 20:59 40.63358 -73.77926 29 ft 18 kts 302°
2026-05-04 20:59 40.63424 -73.78072 27 ft 20 kts 300°
2026-05-04 21:00 40.63496 -73.78234 29 ft 22 kts 300°
2026-05-04 21:00 40.63574 -73.78411 30 ft 23 kts 298°
2026-05-04 21:00 40.63652 -73.78599 30 ft 24 kts 306°
2026-05-04 21:00 40.63747 -73.78784 31 ft 25 kts 301°
2026-05-04 21:01 40.63841 -73.78988 29 ft 27 kts 300°
2026-05-04 21:01 40.63929 -73.79198 29 ft 25 kts 308°
2026-05-04 21:01 40.64025 -73.79372 30 ft 20 kts 303°
2026-05-04 21:01 40.64051 -73.79426 29 ft 1 kts 301°
2026-05-04 21:02 40.64058 -73.79442 33 ft 3 kts 301°
2026-05-04 21:02 40.64062 -73.79451 33 ft 0 kts 301°
2026-05-04 21:03 40.64090 -73.79488 28 ft 11 kts 324°
2026-05-04 21:03 40.64191 -73.79496 26 ft 13 kts 36°
2026-05-04 21:03 40.64210 -73.79431 28 ft 5 kts 103°
2026-05-04 21:03 40.64198 -73.79395 29 ft 4 kts 113°
2026-05-04 21:04 40.64188 -73.79362 27 ft 0 kts 109°
2026-05-04 21:04 40.64184 -73.79347 28 ft 3 kts 109°
2026-05-04 21:04 40.64178 -73.79323 30 ft 0 kts 108°
2026-05-04 21:05 40.64177 -73.79317 27 ft 2 kts 107°
2026-05-04 21:05 40.64175 -73.79310 27 ft 0 kts 108°